Auburn, CA

7:39 AM PST on January 20, 2018 (GMT -0800)
Auburn Municipal

Weather History for KAUN - January, 2012

Change the Weather History Date:

Monday, January 2, 2012

  Actual Average Record
Temperature  
Mean Temperature 82 °F -  
Max Temperature 123 °F 53 °F 123 °F (2012)
Min Temperature 41 °F 33 °F 25 °F (1952)
Cooling Degree Days 17    
Growing Degree Days 32 (Base 50)    
Moisture  
Dew Point 35 °F    
Average Humidity 52    
Maximum Humidity 81    
Minimum Humidity 25    
Precipitation  
Precipitation 0.00 in - - ()
Sea Level Pressure  
Sea Level Pressure 30.25 in    
Wind  
Wind Speed 4 mph (ESE)    
Max Wind Speed 10 mph    
Max Gust Speed -    
Visibility 9 miles    
Events      
Averages and records for this station are not official NWS values.
T = Trace of Precipitation, MM = Missing Value Source: NWS Daily Summary

Daily Weather History Graph

Daily Weather History Graph

Search for Another Location

Airport or City:

Trip Planner

Search our weather history database for the weather conditions in past years. The results will help you decide how hot, cold, wet, or windy it might be!

Date:

Astronomy

Jan. 02, 2012 Rise Set
Actual Time 7:23 AM PST 4:53 PM PST
Civil Twilight 6:53 AM PST 5:23 PM PST
Nautical Twilight 6:20 AM PST 5:56 PM PST
Astronomical Twilight 5:47 AM PST 6:29 PM PST
Moon 12:11 PM PST (1/2) 1:22 AM PST (1/2)
Length of Visible Light 10h 29m
Length of Day
9h 30m
Waxing Gibbous, 65% of the Moon is Illuminated
Jan 2
Waxing Gibbous
Jan 8
Full
Jan 16
Last Quarter
Jan 22
New
Jan 30
First Quarter

Hourly Weather History & Observations

Time (PST) Temp. Windchill Dew Point Humidity Pressure Visibility Wind Dir Wind Speed Gust Speed Precip Events Conditions
12:35 AM 53.6 °F - 32.0 °F 44% 30.18 in 10.0 mi ESE 5.8 mph - N/A   Clear
12:55 AM 53.6 °F - 32.0 °F 44% 30.19 in 10.0 mi Calm Calm - N/A   Clear
1:15 AM 53.6 °F - 28.4 °F 38% 30.18 in 10.0 mi ESE 6.9 mph - N/A   Clear
1:35 AM 55.4 °F - 26.6 °F 33% 30.19 in 10.0 mi SSE 3.5 mph - N/A   Clear
2:15 AM 48.2 °F - 28.4 °F 46% 30.20 in 10.0 mi Calm Calm - N/A   Clear
2:35 AM 46.4 °F 44.3 °F 30.2 °F 53% 30.20 in 10.0 mi SE 4.6 mph - N/A   Clear
2:55 AM 51.8 °F - 30.2 °F 44% 30.19 in 10.0 mi ESE 10.4 mph - N/A   Clear
3:15 AM 55.4 °F - 28.4 °F 36% 30.19 in 10.0 mi ESE 6.9 mph - N/A   Clear
3:35 AM 53.6 °F - 28.4 °F 38% 30.18 in 10.0 mi ESE 9.2 mph - N/A   Clear
3:55 AM 55.4 °F - 26.6 °F 33% 30.18 in 10.0 mi ESE 10.4 mph - N/A   Clear
4:15 AM 59.0 °F - 23.0 °F 25% 30.19 in 10.0 mi Calm Calm - N/A   Clear
4:35 AM 50.0 °F - 26.6 °F 40% 30.19 in 10.0 mi Calm Calm - N/A   Clear
4:55 AM 46.4 °F - 28.4 °F 50% 30.20 in 10.0 mi Calm Calm - N/A   Clear
5:15 AM 41.0 °F - 28.4 °F 61% 30.21 in 10.0 mi Calm Calm - N/A   Clear
5:35 AM 44.6 °F - 30.2 °F 57% 30.22 in 10.0 mi Calm Calm - N/A   Clear
5:55 AM - - - N/A% 30.22 in 10.0 mi Calm Calm - N/A   Clear
6:15 AM - - - N/A% 30.21 in 9.0 mi East 8.1 mph - N/A   Clear
6:35 AM 149.0 °F - 125.6 °F 53% 30.24 in 10.0 mi WSW 8.1 mph - N/A   Clear
6:55 AM 120.2 °F - 98.6 °F 53% 30.25 in 10.0 mi SE 4.6 mph - N/A   Clear
7:35 AM 116.6 °F - 96.8 °F 55% 30.29 in 10.0 mi Calm Calm - N/A   Clear
7:55 AM 123.8 °F - 104.0 °F 56% 30.29 in 7.0 mi ENE 3.5 mph - N/A   Clear
8:15 AM 78.8 °F - 64.4 °F 61% 30.30 in 6.0 mi Calm Calm - N/A   Clear
8:35 AM 51.8 °F - 37.4 °F 58% 30.30 in 5.0 mi East 5.8 mph - N/A   Partly Cloudy
8:55 AM 51.8 °F - 37.4 °F 58% 30.30 in 5.0 mi ESE 6.9 mph - N/A   Clear
9:15 AM 53.6 °F - 37.4 °F 54% 30.31 in 5.0 mi ENE 3.5 mph - N/A   Clear
9:35 AM 53.6 °F - 37.4 °F 54% 30.28 in 5.0 mi East 8.1 mph - N/A   Clear
9:55 AM 55.4 °F - 32.0 °F 41% 30.29 in 9.0 mi Calm Calm - N/A   Clear
10:35 AM 55.4 °F - 32.0 °F 41% 30.31 in 10.0 mi WSW 8.1 mph - N/A   Clear
10:55 AM 53.6 °F - 37.4 °F 54% 30.31 in 6.0 mi Calm Calm - N/A   Clear
11:15 AM 55.4 °F - 35.6 °F 47% 30.29 in 6.0 mi East 5.8 mph - N/A   Clear
11:35 AM 55.4 °F - 35.6 °F 47% 30.30 in 7.0 mi ESE 6.9 mph - N/A   Clear
11:55 AM 57.2 °F - 35.6 °F 44% 30.28 in 8.0 mi East 9.2 mph - N/A   Clear
12:35 PM 60.8 °F - 33.8 °F 36% 30.26 in 10.0 mi ESE 9.2 mph - N/A   Clear
12:55 PM 62.6 °F - 33.8 °F 34% 30.25 in 10.0 mi ESE 8.1 mph - N/A   Clear
1:15 PM 62.6 °F - 32.0 °F 32% 30.24 in 10.0 mi ESE 6.9 mph - N/A   Clear
1:35 PM 62.6 °F - 32.0 °F 32% 30.24 in 10.0 mi SE 4.6 mph - N/A   Clear
1:55 PM 64.4 °F - 32.0 °F 30% 30.25 in 10.0 mi West 8.1 mph - N/A   Clear
2:15 PM 59.0 °F - 41.0 °F 51% 30.24 in 6.0 mi Calm Calm - N/A   Clear
2:35 PM 60.8 °F - 39.2 °F 45% 30.24 in 6.0 mi Calm Calm - N/A   Clear
2:55 PM 60.8 °F - 39.2 °F 45% 30.24 in 7.0 mi Calm Calm - N/A   Clear
3:15 PM 60.8 °F - 41.0 °F 48% 30.24 in 7.0 mi West 4.6 mph - N/A   Clear
3:35 PM 60.8 °F - 42.8 °F 52% 30.25 in 8.0 mi West 6.9 mph - N/A   Clear
3:55 PM 57.2 °F - 42.8 °F 59% 30.25 in 8.0 mi WNW 4.6 mph - N/A   Clear
4:15 PM 55.4 °F - 42.8 °F 63% 30.26 in 8.0 mi WNW 3.5 mph - N/A   Clear
4:35 PM 55.4 °F - 41.0 °F 58% 30.25 in 8.0 mi Calm Calm - N/A   Clear
4:55 PM 53.6 °F - 41.0 °F 62% 30.24 in 8.0 mi Calm Calm - N/A   Clear
5:15 PM 53.6 °F - 39.2 °F 58% 30.25 in 10.0 mi ENE 3.5 mph - N/A   Clear
5:35 PM 48.2 °F - 39.2 °F 71% 30.24 in 10.0 mi Calm Calm - N/A   Clear
5:55 PM 48.2 °F - 39.2 °F 71% 30.25 in 10.0 mi East 3.5 mph - N/A   Clear
6:15 PM 48.2 °F - 37.4 °F 66% 30.25 in 10.0 mi Calm Calm - N/A   Clear
6:35 PM 46.4 °F - 37.4 °F 71% 30.26 in 10.0 mi Calm Calm - N/A   Clear
6:55 PM 48.2 °F - 37.4 °F 66% 30.26 in 10.0 mi WNW 3.5 mph - N/A   Clear
7:15 PM 44.6 °F - 37.4 °F 76% 30.26 in 10.0 mi Calm Calm - N/A   Clear
7:35 PM 42.8 °F 41.1 °F 37.4 °F 81% 30.25 in 10.0 mi ESE 3.5 mph - N/A   Clear
7:55 PM 44.6 °F - 37.4 °F 76% 30.26 in 10.0 mi Calm Calm - N/A   Clear
8:15 PM - - - N/A% 30.26 in 10.0 mi Calm Calm - N/A   Clear
8:35 PM - - - N/A% 30.27 in 10.0 mi Calm Calm - N/A   Clear
8:55 PM - - - N/A% 30.29 in 10.0 mi NNW 3.5 mph - N/A   Clear
9:15 PM - - - N/A% 30.29 in 10.0 mi Calm Calm - N/A   Clear
9:35 PM 174.2 °F - 165.2 °F 80% 30.31 in 10.0 mi ESE 3.5 mph - N/A   Clear
9:55 PM 161.6 °F - 150.8 °F 76% 30.30 in 10.0 mi ESE 5.8 mph - N/A   Clear
10:15 PM - - 159.8 °F N/A% 30.31 in 10.0 mi East 9.2 mph - N/A   Clear
10:35 PM 176.0 °F - 150.8 °F 54% 30.31 in 10.0 mi East 9.2 mph - N/A   Clear
10:55 PM 154.4 °F - 125.6 °F 46% 30.29 in 10.0 mi East 10.4 mph - N/A   Clear
11:15 PM 51.8 °F - 32.0 °F 47% 30.28 in 10.0 mi ESE 9.2 mph - N/A   Clear
11:35 PM 51.8 °F - 32.0 °F 47% 30.28 in 10.0 mi East 9.2 mph - N/A   Clear
11:55 PM 51.8 °F - 32.0 °F 47% 30.29 in 10.0 mi ESE 6.9 mph - N/A   Clear